STARLINK-5079 (53999 NORAD) Tracking and Keplerian Element Data

This shows tracking and keplerian element data for the satellite.

Feedback or suggestion? Click here.




ElementValue
Catalog53999
NameSTARLINK-5079
Epoch Orbit130
Epoch Day324.91667824
Epoch Year2022
RAAN225.4816
Inclination53.2169
Eccentricity0.0001225
Argument of Perigee118.8604
Mean Anonmoly150.1386
Mean Motion15.49913018
Decay Rate-0.00013922
L11 53999U 22125AM 22324.91667824 -.00013922 00000+0 -23754-3 0 9995
L22 53999 53.2169 225.4816 0001225 118.8604 150.1386 15.49913018 1308



Live tracking and technical data element details for STARLINK-5079 (NORAD 53999). STARLINK-5079 can be tracked NOW for your location showing map with azimuth and elevation plus other details from your city location.







IsCatalogInMostPopularTable: catalog: 53999, numindb: 2
Update: records affected: 1



GetName: 53999 STARLINK-5079

Hit Count: updated at: Mon, 28 Nov 2022 22:14:52 GMT